Weather in Voronove

Ukraine / Luhansk Region     48°53′53″N   38°34′29″E
temp.,
°C
wind,
m/s
gust,
m/s
humid.,
%
clouds,
%
prec.,
mm/h
press.,
hPa
HPBL,
m
20 april, tue
tue2000:00+12e477295 0.2 1013296
03:00+11e367496 0.3 1012321
06:00+10ene4880100 0.2 1009409
09:00+13e5771100 0.3 1009885
12:00+12ese4889100 1.4 1006684
15:00+13se6882100 5.6 1003871
18:00+12sse5118715 3.2 1001706
21:00+11s6128218 4.1 1002882
21 april, wed
wed2100:00+10ssw81286100 0.1 1002982
03:00+10wsw81384100 0.5 10061053
06:00+9sw61186100 0.1 1009680
09:00+11wsw796611 0.1 10121000
12:00+15wsw794671 0.1 10132072
15:00+14w594381 0.1 10141798
18:00+14sw4749100 0.1 10151359
21:00+11ssw376344 0.4 1017284
22 april, thu
thu2200:00+10ssw49725 0.0 1018302
03:00+8ssw38825 0.0 1019231
06:00+8sw38845 0.0 1020232
09:00+13sw46625 0.0 1021672
12:00+17sw554326 0.4 10211984
15:00+18sw4535100 0.4 10202589
18:00+16w134492 0.0 1020552
21:00+13ssw125832 0.1 102135
23 april, fri
fri2300:00+12sse226182 0.1 102115
03:00+11wsw236452 0.1 102168
06:00+10sw237588 0.0 102284
09:00+13sw236191 0.0 1022446
12:00+17ssw334237 0.1 10211958
15:00+17ssw344099 0.2 10201944
18:00+17ssw4441100 0.0 10191312
21:00+15sse244898 0.0 1019140
24 april, sat
sat2400:00+13sw49605 0.0 1018433
03:00+10ssw386891 0.0 1017262
06:00+10ssw41170100 0.0 1016434
09:00+11ssw6963100 0.0 1015662
12:00+8w7977100 0.4 1017722
15:00+11w69485 0.4 10161735
18:00+11w8114815 0.0 10161824
21:00+7w711465 0.0 10181096